{"data":{"norad_id":44112,"intl_designator":"2019-020A","name":"O3B FM20","alt_names":[],"object_type":"PAYLOAD","status":"ACTIVE","operator":null,"country":"O3B","launch_date":"2019-04-04","launch_site_code":"FRGUI","launch_vehicle":null,"mission":null,"orbit_class":"UNKNOWN","rcs_meters":null,"size_class":null,"mass_kg":null,"dimensions":null,"purposes":["comms"],"wikipedia_slug":null,"has_3d_model":false,"image_url":null,"decayed_at":null,"tle_current":{"epoch":"2026-05-25T00:35:33.641088Z","epoch_age_seconds":79713,"freshness":"FRESH","line1":"1 44112U 19020A   26145.02469492 -.00000024  00000+0  00000+0 0  9993","line2":"2 44112   0.0526   0.0921 0002502  54.1526 305.7780  5.00115581130416","mean_motion":5.00115581,"eccentricity":0.0002502,"inclination_deg":0.0526,"raan_deg":0.0921,"arg_perigee_deg":54.1526,"mean_anomaly_deg":305.778,"bstar":0,"rev_number":13041,"period_min":287.93344072997,"perigee_km":8062.2747634738,"apogee_km":8069.5025539134,"semimajor_km":14444.025658694,"source":"CELESTRAK","updated_at":"2026-05-25T13:38:14.515053Z"}}}